Home   Weather   Slough   Past weeks

Flag for United Kingdom Past Weather in Slough, England, United Kingdom — Yesterday and Last 2 Weeks

Now
46 °F

Partly sunny.


Feels Like: 39 °F
Forecast: N/A
Wind: 18 mph from East

Location: London City Airport

Current Time: Dec 3, 2016 at 3:49:42 pm

Latest Report: Dec 3, 2016 at 3:20 pm


Visibility: N/A

Pressure: 30.27 "Hg

Humidity: 62%

Dew Point: 34 °F

Location of SloughLocation

Past Weather in Slough — Graph

°F

Slough Temperature Yesterday

Maximum temperature yesterday: 46 °F (at 10:50 am)
Minimum temperature yesterday: 41 °F (at 12:50 am)
Average temperature yesterday: 44 °F

High & Low Weather Summary for the Past Weeks

 TemperatureHumidityPressure
High57 °F (Nov 21, 2:20 pm)100% (Nov 20, 7:20 am)30.60 "Hg (Nov 20, 7:20 am)
Low30 °F (Nov 30, 5:20 am)41% (Nov 25, 1:20 pm)28.65 "Hg (Nov 20, 6:20 am)
Average45 °F78%30.03 "Hg
* Reported Nov 18 2:20 pm — Dec 3 2:20 pm, Slough, Weather by CustomWeather, © 2016

Note: Actual official high and low records may vary slightly from our data, if they occured in-between our weather recording intervals... More about our weather records

Advertising

Slough Weather History for the Previous 24 Hours

Scroll right to see more
 ConditionsComfort  
Time TempWeatherWind HumidityBarometerVisibility
2:20 pm
Sat, Dec 3
46 °FPartly sunny.21 mph57%30.27 "HgN/A
1:50 pm48 °FPartly sunny.18 mph58%30.27 "HgN/A
1:20 pm48 °FPartly sunny.20 mph58%30.27 "HgN/A
12:50 pm48 °FPartly sunny.20 mph58%30.27 "HgN/A
12:20 pm48 °FPassing clouds.16 mph62%30.27 "HgN/A
11:50 am48 °FPassing clouds.16 mph62%30.27 "HgN/A
11:20 am48 °FPassing clouds.17 mph66%30.30 "HgN/A
10:50 am46 °FScattered clouds.9 mph76%30.30 "HgN/A
10:20 am46 °FPassing clouds.9 mph76%30.30 "HgN/A
9:50 am45 °FPartly sunny.7 mph81%30.30 "HgN/A
9:20 am45 °FPartly sunny.3 mph76%30.30 "HgN/A
8:50 am43 °FOvercast.3 mph81%30.30 "HgN/A
8:20 am43 °FPartly sunny.5 mph81%30.30 "HgN/A
7:50 am43 °FPartly sunny.5 mph81%30.30 "HgN/A
7:20 am43 °FMostly cloudy.6 mph76%30.27 "HgN/A
6:50 am43 °FOvercast.5 mph76%30.27 "HgN/A
6:20 am43 °FPassing clouds.3 mph81%30.27 "HgN/A
5:50 am43 °FOvercast.No wind81%30.27 "HgN/A
5:20 am43 °FOvercast.3 mph81%30.27 "HgN/A
4:50 am43 °FOvercast.3 mph81%30.27 "HgN/A
4:20 am43 °FOvercast.3 mph81%30.27 "HgN/A
3:50 am43 °FOvercast.5 mph87%30.27 "HgN/A
3:20 am43 °FOvercast.2 mph87%30.27 "HgN/A
2:50 am43 °FMostly cloudy.5 mph87%30.27 "HgN/A
2:20 am43 °FMostly cloudy.3 mph87%30.30 "HgN/A
1:50 am43 °FOvercast.1 mph87%30.30 "HgN/A
1:20 am43 °FOvercast.1 mph87%30.30 "HgN/A
12:50 am43 °FOvercast.2 mph93%30.30 "Hg5 mi
12:20 am43 °FPassing clouds.3 mph93%30.30 "Hg4 mi
11:50 pm
Fri, Dec 2
45 °FPassing clouds.3 mph87%30.30 "HgN/A
11:20 pm45 °FPassing clouds.6 mph93%30.30 "HgN/A
10:50 pm45 °FMostly cloudy.5 mph93%30.30 "HgN/A
10:20 pm45 °FMostly cloudy.5 mph93%30.30 "HgN/A
9:50 pm45 °FOvercast.5 mph93%30.30 "HgN/A
9:20 pm45 °FMostly cloudy.5 mph93%30.30 "HgN/A
8:50 pm45 °FMostly cloudy.5 mph93%30.30 "Hg6 mi
8:20 pm45 °FPartly cloudy.3 mph93%30.30 "HgN/A
7:50 pm45 °FClear.5 mph93%30.30 "Hg10 mi
7:20 pm46 °FPassing clouds.2 mph87%30.30 "HgN/A
6:50 pm46 °FLight rain. Partly cloudy.3 mph87%30.30 "HgN/A
6:20 pm46 °FOvercast.3 mph82%30.30 "HgN/A
5:50 pm46 °FPassing clouds.1 mph82%30.30 "HgN/A
5:20 pm46 °FOvercast.2 mph82%30.30 "HgN/A
4:50 pm46 °FOvercast.2 mph82%30.30 "HgN/A
4:20 pm46 °FPassing clouds.3 mph82%30.30 "HgN/A
3:50 pm46 °FPartly sunny.2 mph82%30.30 "HgN/A
3:20 pm46 °FPartly sunny.2 mph82%30.30 "HgN/A
Weather by CustomWeather, © 2016

See weather overviewHow to use our weather pages